sat.trackr.live / text

‹ back to catalog

STARLINK-11130 [DTC]

NORAD 59950 · 2024-107F

PAYLOAD ACTIVE UNKNOWN

§ Identity

Operator
Country
US
Launch date
2024-06-05
Launch site
AFETR
Launch vehicle
Mass (kg)
RCS (m²)

Purposes: comms

External: N2YO · Heavens-Above · Gunter

§ Orbital elements

Epoch: 2026-05-25T05:13:32.101824Z

Period
91.74 min
Inclination
53.1598°
Eccentricity
0.0000709
Mean motion
15.69716808 rev/d
Perigee alt
359.2 km
Apogee alt
360.2 km
Semi-major
6,737.8 km
B*
2.0025e-5
RAAN
234.1465°
Arg perigee
76.9275°
Mean anomaly
283.1822°
Rev number
11,416

§ Raw data

STARLINK-11130 [DTC]1 59950U 24107F   26145.21773266  .00001839  00000+0  20025-4 0  99972 59950  53.1598 234.1465 0000709  76.9275 283.1822 15.69716808114168

JSON: /api/v1/satellites/59950 · /tle

For live sub-satellite position, see the globe view (requires WebGL).

§ Visibility from observer

Set your observer location to see the next 7 days of passes ≥ 10°. The values pass through the URL so the page stays shareable.

No JS? Fill the form by hand. The geolocation button needs JavaScript.